GEC8290 LTFM-LOWW

Flight info

Callsign GEC8290
Flight time 1h 50m
Altitude 34000
Route TUDBU DCT ETUBA DCT APROB DCT BALUX DCT TORNO DCT NATEX NATEX2W
Aircraft B77L/H-SDE1E2E3FGHIJ2J3J4J5M1RWXY/LB1D1

Departure

Time 2026-04-26 21:06
Airport İstanbul Airport (LTFM)

Arrival

Time 2026-04-26 22:56
Airport Vienna International Airport (LOWW)
Time Latitude Longitude Altitude Speed Heading
2026-04-26 20:32 41.26989 28.72110 334 ft 0 kts 270°
2026-04-26 20:33 41.26993 28.72116 326 ft 0 kts 268°
2026-04-26 20:49 41.26993 28.72145 333 ft 4 kts 271°
2026-04-26 20:50 41.26992 28.72181 333 ft 4 kts 276°
2026-04-26 20:50 41.26988 28.72216 333 ft 4 kts 282°
2026-04-26 20:50 41.26980 28.72250 333 ft 4 kts 295°
2026-04-26 20:50 41.26966 28.72277 333 ft 4 kts 336°
2026-04-26 20:51 41.26958 28.72281 333 ft 1 kts 359°
2026-04-26 20:59 41.26984 28.72281 333 ft 10 kts 359°
2026-04-26 20:59 41.27103 28.72278 337 ft 21 kts 359°
2026-04-26 21:00 41.27249 28.72274 334 ft 21 kts 359°
2026-04-26 21:00 41.27395 28.72273 336 ft 21 kts 359°
2026-04-26 21:00 41.27541 28.72271 334 ft 21 kts 359°
2026-04-26 21:00 41.27687 28.72264 334 ft 21 kts 358°
2026-04-26 21:01 41.27833 28.72257 338 ft 21 kts
2026-04-26 21:01 41.27979 28.72258 334 ft 21 kts 359°
2026-04-26 21:01 41.28125 28.72255 335 ft 21 kts 359°
2026-04-26 21:01 41.28270 28.72252 334 ft 21 kts 359°
2026-04-26 21:02 41.28416 28.72247 337 ft 21 kts 359°
2026-04-26 21:02 41.28561 28.72245 334 ft 21 kts 359°
2026-04-26 21:02 41.28707 28.72241 335 ft 21 kts 359°
2026-04-26 21:02 41.28852 28.72238 334 ft 21 kts 359°
2026-04-26 21:03 41.28998 28.72234 335 ft 21 kts 359°
2026-04-26 21:03 41.29144 28.72231 335 ft 21 kts 359°
2026-04-26 21:03 41.29290 28.72227 338 ft 21 kts 359°
2026-04-26 21:03 41.29436 28.72223 337 ft 21 kts 359°
2026-04-26 21:04 41.29582 28.72221 338 ft 21 kts 359°
2026-04-26 21:04 41.29667 28.72233 335 ft 9 kts 31°
2026-04-26 21:04 41.29679 28.72314 335 ft 9 kts 89°
2026-04-26 21:04 41.29680 28.72401 335 ft 10 kts 92°
2026-04-26 21:05 41.29632 28.72448 334 ft 10 kts 179°
2026-04-26 21:05 41.29609 28.72448 335 ft 0 kts 179°
2026-04-26 21:05 41.29528 28.72450 334 ft 48 kts 179°
2026-04-26 21:05 41.28861 28.72460 334 ft 132 kts 178°
2026-04-26 21:06 41.27756 28.72481 353 ft 183 kts 178°
2026-04-26 21:06 41.26443 28.72557 829 ft 187 kts 180°
2026-04-26 21:06 41.25133 28.72596 1434 ft 195 kts 183°
2026-04-26 21:06 41.23748 28.72644 2050 ft 202 kts 182°
2026-04-26 21:07 41.22269 28.72710 2383 ft 226 kts 181°
2026-04-26 21:07 41.20622 28.72629 2549 ft 249 kts 199°
2026-04-26 21:07 41.19097 28.71487 3023 ft 258 kts 230°
2026-04-26 21:07 41.18259 28.69399 3675 ft 259 kts 262°
2026-04-26 21:08 41.18088 28.67018 4462 ft 261 kts 272°
2026-04-26 21:08 41.18052 28.64585 5310 ft 264 kts 273°
2026-04-26 21:08 41.18033 28.62170 6177 ft 267 kts 273°
2026-04-26 21:08 41.18072 28.59695 6911 ft 268 kts 283°
2026-04-26 21:09 41.18801 28.57451 7594 ft 267 kts 311°
2026-04-26 21:09 41.20245 28.55913 8373 ft 269 kts 334°
2026-04-26 21:09 41.22056 28.55270 9088 ft 273 kts 356°
2026-04-26 21:09 41.23994 28.55236 9724 ft 282 kts 359°
2026-04-26 21:10 41.25974 28.55226 10398 ft 289 kts 358°
2026-04-26 21:10 41.28066 28.55201 10648 ft 313 kts 358°
2026-04-26 21:10 41.30327 28.55164 10857 ft 338 kts 358°
2026-04-26 21:10 41.32760 28.55304 11124 ft 360 kts
2026-04-26 21:11 41.35287 28.55731 11707 ft 371 kts
2026-04-26 21:11 41.37838 28.56194 12431 ft 377 kts
2026-04-26 21:11 41.40453 28.56626 13249 ft 381 kts
2026-04-26 21:11 41.43100 28.57034 14042 ft 385 kts
2026-04-26 21:12 41.45780 28.57285 14778 ft 387 kts 359°
2026-04-26 21:12 41.48479 28.57243 15540 ft 389 kts 356°
2026-04-26 21:12 41.51215 28.57111 16171 ft 396 kts 356°
2026-04-26 21:12 41.53982 28.56983 16904 ft 399 kts 356°
2026-04-26 21:13 41.56770 28.56884 17673 ft 402 kts 357°
2026-04-26 21:13 41.59544 28.56810 18415 ft 404 kts 357°
2026-04-26 21:13 41.62367 28.56750 19057 ft 407 kts 358°
2026-04-26 21:13 41.65213 28.56694 19700 ft 410 kts 358°
2026-04-26 21:14 41.68073 28.56615 20332 ft 408 kts 355°
2026-04-26 21:14 41.70844 28.55788 20793 ft 413 kts 336°
2026-04-26 21:14 41.73292 28.53748 21384 ft 418 kts 319°
2026-04-26 21:14 41.75212 28.50809 22046 ft 422 kts 304°
2026-04-26 21:15 41.76543 28.47272 22653 ft 429 kts 290°
2026-04-26 21:15 41.77062 28.43310 23149 ft 438 kts 276°
2026-04-26 21:15 41.77190 28.39190 23558 ft 446 kts 275°
2026-04-26 21:15 41.77336 28.35068 23997 ft 450 kts 276°
2026-04-26 21:16 41.77536 28.30868 24561 ft 451 kts 277°
2026-04-26 21:16 41.77759 28.26672 25112 ft 453 kts 277°
2026-04-26 21:16 41.77992 28.22440 25610 ft 453 kts 278°
2026-04-26 21:16 41.78613 28.18308 25958 ft 455 kts 293°
2026-04-26 21:17 41.80098 28.14596 26380 ft 451 kts 305°
2026-04-26 21:17 41.81820 28.11051 26790 ft 456 kts 304°
2026-04-26 21:17 41.83506 28.07417 27261 ft 461 kts 303°
2026-04-26 21:17 41.85139 28.03769 27771 ft 463 kts 303°
2026-04-26 21:18 41.86790 28.00033 28317 ft 465 kts 303°
2026-04-26 21:18 41.88385 27.96436 28708 ft 470 kts 303°
2026-04-26 21:18 41.90069 27.92648 29144 ft 473 kts 303°
2026-04-26 21:18 41.91764 27.88836 29598 ft 476 kts 303°
2026-04-26 21:19 41.93466 27.85006 30077 ft 477 kts 303°
2026-04-26 21:19 41.95136 27.81238 30757 ft 472 kts 302°
2026-04-26 21:19 41.96837 27.77515 31543 ft 462 kts 306°
2026-04-26 21:19 41.98874 27.74200 32129 ft 458 kts 315°
2026-04-26 21:20 42.01110 27.71150 32558 ft 458 kts 317°
2026-04-26 21:20 42.03394 27.68168 32959 ft 459 kts 317°
2026-04-26 21:20 42.05700 27.65164 33350 ft 459 kts 316°
2026-04-26 21:20 42.07963 27.62170 34044 ft 454 kts 316°
2026-04-26 21:21 42.10217 27.59149 34096 ft 460 kts 315°
2026-04-26 21:21 42.14707 27.53023 34117 ft 456 kts 315°
2026-04-26 21:22 42.19115 27.46943 34366 ft 459 kts 315°
2026-04-26 21:22 42.21351 27.43854 34644 ft 460 kts 314°
2026-04-26 21:22 42.22833 27.41799 34895 ft 459 kts 314°
2026-04-26 21:23 42.27257 27.35657 35783 ft 453 kts 314°
2026-04-26 21:23 42.29454 27.32609 36136 ft 453 kts 314°
2026-04-26 21:23 42.33888 27.26450 36120 ft 457 kts 314°
2026-04-26 21:24 42.38283 27.20334 36102 ft 450 kts 314°
2026-04-26 21:24 42.42635 27.14261 36099 ft 449 kts 314°
2026-04-26 21:25 42.46964 27.08213 36121 ft 450 kts 314°
2026-04-26 21:25 42.51336 27.02088 36115 ft 452 kts 314°
2026-04-26 21:26 42.55645 26.96037 36115 ft 454 kts 314°
2026-04-26 21:26 42.60038 26.89856 36117 ft 455 kts 313°
2026-04-26 21:27 42.64420 26.83676 36113 ft 457 kts 313°
2026-04-26 21:27 42.68839 26.77431 36119 ft 458 kts 313°
2026-04-26 21:28 42.73227 26.71216 36118 ft 458 kts 313°
2026-04-26 21:28 42.77612 26.64991 36120 ft 453 kts 312°
2026-04-26 21:29 42.81979 26.58786 36119 ft 453 kts 313°
2026-04-26 21:29 42.86451 26.52729 36121 ft 453 kts 314°
2026-04-26 21:30 42.90949 26.46768 36128 ft 453 kts 314°
2026-04-26 21:30 42.95458 26.40756 36131 ft 452 kts 314°
2026-04-26 21:31 42.99949 26.34723 36119 ft 451 kts 314°
2026-04-26 21:31 43.04375 26.28749 36138 ft 450 kts 314°
2026-04-26 21:32 43.08827 26.22727 36130 ft 449 kts 314°
2026-04-26 21:32 43.13269 26.16707 36129 ft 449 kts 314°
2026-04-26 21:33 43.17681 26.10716 36136 ft 448 kts 314°
2026-04-26 21:33 43.22107 26.04691 36123 ft 448 kts 314°
2026-04-26 21:34 43.26454 25.98763 36104 ft 449 kts 314°
2026-04-26 21:34 43.30890 25.92700 36121 ft 449 kts 314°
2026-04-26 21:35 43.35328 25.86619 36135 ft 450 kts 313°
2026-04-26 21:35 43.39739 25.80565 36118 ft 451 kts 313°
2026-04-26 21:36 43.44180 25.74454 36143 ft 451 kts 313°
2026-04-26 21:36 43.48626 25.68324 36137 ft 451 kts 313°
2026-04-26 21:37 43.53030 25.62237 36135 ft 451 kts 313°
2026-04-26 21:37 43.57455 25.56109 36130 ft 450 kts 313°
2026-04-26 21:38 43.61875 25.49975 36134 ft 450 kts 313°
2026-04-26 21:38 43.66255 25.43881 36143 ft 450 kts 313°
2026-04-26 21:39 43.70664 25.37734 36134 ft 449 kts 313°
2026-04-26 21:39 43.75060 25.31591 36134 ft 449 kts 313°
2026-04-26 21:40 43.79446 25.25450 36133 ft 448 kts 313°
2026-04-26 21:40 43.83831 25.19295 36133 ft 448 kts 312°
2026-04-26 21:41 43.88200 25.13148 36136 ft 448 kts 312°
2026-04-26 21:41 43.92553 25.07011 36130 ft 448 kts 312°
2026-04-26 21:42 43.96925 25.00833 36138 ft 448 kts 312°
2026-04-26 21:42 44.01017 24.94578 36143 ft 447 kts 309°
2026-04-26 21:43 44.05108 24.88065 36141 ft 447 kts 309°
2026-04-26 21:43 44.09169 24.81583 36133 ft 447 kts 309°
2026-04-26 21:44 44.13271 24.75056 36138 ft 448 kts 309°
2026-04-26 21:44 44.17375 24.68529 36139 ft 448 kts 309°
2026-04-26 21:45 44.21482 24.61985 36140 ft 448 kts 309°
2026-04-26 21:45 44.25582 24.55438 36141 ft 448 kts 309°
2026-04-26 21:46 44.29656 24.48916 36148 ft 449 kts 309°
2026-04-26 21:46 44.33757 24.42337 36141 ft 448 kts 309°
2026-04-26 21:47 44.37851 24.35752 36148 ft 448 kts 309°
2026-04-26 21:47 44.41931 24.29174 36156 ft 448 kts 309°
2026-04-26 21:48 44.46003 24.22595 36160 ft 447 kts 309°
2026-04-26 21:48 44.50065 24.16016 36160 ft 445 kts 309°
2026-04-26 21:49 44.54103 24.09461 36161 ft 444 kts 309°
2026-04-26 21:49 44.58121 24.02922 36173 ft 444 kts 309°
2026-04-26 21:50 44.61390 23.97593 36165 ft 443 kts 309°
2026-04-26 21:50 44.66063 23.89957 36155 ft 440 kts 308°
2026-04-26 21:51 44.70038 23.83443 36163 ft 437 kts 308°
2026-04-26 21:51 44.73992 23.76950 36161 ft 436 kts 308°
2026-04-26 21:52 44.77915 23.70494 36160 ft 436 kts 308°
2026-04-26 21:52 44.81853 23.63996 36165 ft 437 kts 308°
2026-04-26 21:53 44.85807 23.57457 36168 ft 438 kts 308°
2026-04-26 21:53 44.89761 23.50903 36168 ft 439 kts 308°
2026-04-26 21:54 44.93695 23.44368 36174 ft 440 kts 308°
2026-04-26 21:54 44.97662 23.37764 36178 ft 442 kts 308°
2026-04-26 21:55 45.01624 23.31151 36176 ft 443 kts 308°
2026-04-26 21:55 45.05604 23.24493 36189 ft 443 kts 308°
2026-04-26 21:56 45.09584 23.17820 36185 ft 444 kts 308°
2026-04-26 21:56 45.13558 23.11140 36198 ft 443 kts 308°
2026-04-26 21:57 45.17507 23.04486 36214 ft 443 kts 308°
2026-04-26 21:57 45.21396 22.97919 36210 ft 442 kts 308°
2026-04-26 21:58 45.23324 22.94658 35655 ft 442 kts 308°
2026-04-26 21:58 45.25297 22.91317 36315 ft 435 kts 308°
2026-04-26 21:58 45.29123 22.84831 36232 ft 428 kts 308°
2026-04-26 21:59 45.33005 22.78220 36240 ft 441 kts 308°
2026-04-26 21:59 45.36944 22.71502 36234 ft 443 kts 308°
2026-04-26 22:00 45.40858 22.64817 36231 ft 441 kts 307°
2026-04-26 22:00 45.44778 22.58105 36238 ft 439 kts 307°
2026-04-26 22:01 45.48674 22.51415 36242 ft 437 kts 307°
2026-04-26 22:01 45.52529 22.44782 36236 ft 436 kts 307°
2026-04-26 22:02 45.55760 22.39208 36239 ft 435 kts 307°
2026-04-26 22:02 45.60244 22.31456 36249 ft 436 kts 307°
2026-04-26 22:03 45.64112 22.24750 36250 ft 437 kts 307°
2026-04-26 22:03 45.67993 22.18006 36242 ft 439 kts 307°
2026-04-26 22:04 45.71855 22.11279 36245 ft 440 kts 307°
2026-04-26 22:04 45.75746 22.04486 36236 ft 441 kts 307°
2026-04-26 22:05 45.79556 21.97818 36236 ft 442 kts 307°
2026-04-26 22:05 45.83452 21.90983 36242 ft 443 kts 307°
2026-04-26 22:06 45.87343 21.84141 36242 ft 443 kts 307°
2026-04-26 22:06 45.91236 21.77277 36254 ft 442 kts 307°
2026-04-26 22:07 45.95115 21.70422 36224 ft 441 kts 307°
2026-04-26 22:07 45.98321 21.64745 36234 ft 439 kts 307°
2026-04-26 22:08 46.02761 21.56861 36229 ft 437 kts 306°
2026-04-26 22:08 46.06591 21.50042 36268 ft 436 kts 306°
2026-04-26 22:09 46.10378 21.43283 36256 ft 435 kts 306°
2026-04-26 22:09 46.14178 21.36484 36273 ft 435 kts 306°
2026-04-26 22:10 46.17970 21.29684 36262 ft 434 kts 306°
2026-04-26 22:10 46.21122 21.24019 36259 ft 435 kts 306°
2026-04-26 22:11 46.24910 21.17194 36268 ft 435 kts 306°
2026-04-26 22:11 46.29314 21.09239 36262 ft 436 kts 306°
2026-04-26 22:12 46.32487 21.03495 36261 ft 436 kts 306°
2026-04-26 22:12 46.36162 20.96826 36257 ft 436 kts 306°
2026-04-26 22:13 46.39956 20.89924 36244 ft 437 kts 306°
2026-04-26 22:13 46.43739 20.83025 36254 ft 437 kts 306°
2026-04-26 22:14 46.47503 20.76143 36257 ft 438 kts 306°
2026-04-26 22:14 46.51298 20.69187 36256 ft 439 kts 306°
2026-04-26 22:15 46.55084 20.62231 36276 ft 439 kts 306°
2026-04-26 22:15 46.58867 20.55262 36254 ft 439 kts 306°
2026-04-26 22:16 46.62648 20.48282 36257 ft 438 kts 306°
2026-04-26 22:16 46.66410 20.41317 36258 ft 437 kts 306°
2026-04-26 22:17 46.70140 20.34396 36255 ft 436 kts 306°
2026-04-26 22:17 46.73883 20.27430 36256 ft 436 kts 306°
2026-04-26 22:18 46.77623 20.20454 36259 ft 436 kts 306°
2026-04-26 22:18 46.81352 20.13480 36261 ft 436 kts 306°
2026-04-26 22:19 46.85078 20.06496 36263 ft 436 kts 306°
2026-04-26 22:19 46.88733 19.99626 36280 ft 436 kts 306°
2026-04-26 22:20 46.92439 19.92644 36263 ft 436 kts 305°
2026-04-26 22:20 46.96158 19.85619 36267 ft 436 kts 305°
2026-04-26 22:21 46.99869 19.78591 36267 ft 436 kts 305°
2026-04-26 22:21 47.03547 19.71607 36267 ft 436 kts 305°
2026-04-26 22:22 47.07257 19.64546 36259 ft 436 kts 305°
2026-04-26 22:22 47.10969 19.57461 36273 ft 437 kts 305°
2026-04-26 22:23 47.14656 19.50408 36273 ft 438 kts 305°
2026-04-26 22:23 47.18371 19.43280 36272 ft 439 kts 305°
2026-04-26 22:24 47.22093 19.36122 36270 ft 440 kts 305°
2026-04-26 22:24 47.25808 19.28960 36270 ft 441 kts 305°
2026-04-26 22:25 47.29504 19.21816 36268 ft 441 kts 305°
2026-04-26 22:25 47.33175 19.14570 36267 ft 440 kts 302°
2026-04-26 22:26 47.36128 19.06683 36271 ft 438 kts 293°
2026-04-26 22:26 47.38610 18.98661 36271 ft 439 kts 293°
2026-04-26 22:27 47.39875 18.94564 36114 ft 441 kts 293°
2026-04-26 22:27 47.41169 18.90392 35256 ft 445 kts 294°
2026-04-26 22:27 47.42435 18.86325 34500 ft 432 kts 294°
2026-04-26 22:27 47.43694 18.82287 33617 ft 433 kts 294°
2026-04-26 22:28 47.44939 18.78290 32747 ft 434 kts 294°
2026-04-26 22:28 47.46200 18.74238 32101 ft 430 kts 294°
2026-04-26 22:28 47.47444 18.70232 31469 ft 427 kts 294°
2026-04-26 22:28 47.48677 18.66253 30878 ft 423 kts 294°
2026-04-26 22:29 47.49899 18.62304 30287 ft 420 kts 295°
2026-04-26 22:29 47.51108 18.58393 29620 ft 416 kts 294°
2026-04-26 22:29 47.52303 18.54520 29026 ft 411 kts 294°
2026-04-26 22:29 47.53481 18.50688 28443 ft 406 kts 294°
2026-04-26 22:30 47.54509 18.46822 27861 ft 402 kts 288°
2026-04-26 22:30 47.55339 18.42936 27304 ft 399 kts 288°
2026-04-26 22:30 47.56162 18.39022 26742 ft 396 kts 287°
2026-04-26 22:30 47.56977 18.35141 26203 ft 393 kts 287°
2026-04-26 22:31 47.57786 18.31294 25649 ft 390 kts 287°
2026-04-26 22:31 47.58595 18.27459 25119 ft 388 kts 287°
2026-04-26 22:31 47.59397 18.23660 24598 ft 386 kts 287°
2026-04-26 22:31 47.60195 18.19883 24093 ft 384 kts 287°
2026-04-26 22:32 47.60992 18.16104 23508 ft 383 kts 287°
2026-04-26 22:32 47.61781 18.12352 22938 ft 380 kts 287°
2026-04-26 22:32 47.62565 18.08620 22410 ft 378 kts 287°
2026-04-26 22:32 47.63341 18.04921 21900 ft 375 kts 287°
2026-04-26 22:33 47.64102 18.01288 21384 ft 372 kts 287°
2026-04-26 22:33 47.65599 17.94122 20433 ft 368 kts 288°
2026-04-26 22:33 47.66352 17.90504 19943 ft 366 kts 288°
2026-04-26 22:34 47.67103 17.86892 19459 ft 364 kts 288°
2026-04-26 22:34 47.67848 17.83304 18968 ft 363 kts 288°
2026-04-26 22:34 47.68589 17.79730 18496 ft 362 kts 288°
2026-04-26 22:34 47.69317 17.76212 17952 ft 360 kts 288°
2026-04-26 22:35 47.70050 17.72664 17433 ft 358 kts 288°
2026-04-26 22:35 47.70777 17.69136 16929 ft 356 kts 288°
2026-04-26 22:35 47.71497 17.65638 16437 ft 353 kts 288°
2026-04-26 22:35 47.72212 17.62157 15964 ft 351 kts 288°
2026-04-26 22:36 47.72921 17.58703 15488 ft 348 kts 288°
2026-04-26 22:36 47.73625 17.55264 15014 ft 346 kts 288°
2026-04-26 22:36 47.74319 17.51851 14543 ft 342 kts 287°
2026-04-26 22:36 47.74654 17.48387 14218 ft 337 kts 270°
2026-04-26 22:37 47.74438 17.44948 14026 ft 345 kts 266°
2026-04-26 22:37 47.74154 17.41355 13787 ft 353 kts 265°
2026-04-26 22:37 47.73869 17.37729 13564 ft 353 kts 265°
2026-04-26 22:37 47.73593 17.34119 13349 ft 349 kts 266°
2026-04-26 22:38 47.73329 17.30556 13138 ft 345 kts 266°
2026-04-26 22:38 47.73072 17.27036 12932 ft 342 kts 266°
2026-04-26 22:38 47.72819 17.23528 12742 ft 340 kts 266°
2026-04-26 22:38 47.72569 17.20043 12546 ft 338 kts 266°
2026-04-26 22:39 47.72317 17.16570 12356 ft 337 kts 266°
2026-04-26 22:39 47.72070 17.13115 12151 ft 333 kts 268°
2026-04-26 22:39 47.72283 17.09734 11958 ft 332 kts 288°
2026-04-26 22:39 47.73303 17.06710 11778 ft 334 kts 306°
2026-04-26 22:40 47.74936 17.04195 11583 ft 334 kts 320°
2026-04-26 22:40 47.76920 17.02533 11374 ft 331 kts 337°
2026-04-26 22:40 47.79093 17.01542 11180 ft 320 kts 340°
2026-04-26 22:40 47.81195 17.00611 11011 ft 309 kts 339°
2026-04-26 22:41 47.83151 16.99708 10825 ft 298 kts 339°
2026-04-26 22:41 47.85096 16.98787 10660 ft 288 kts 339°
2026-04-26 22:41 47.86968 16.97893 10483 ft 277 kts 338°
2026-04-26 22:41 47.88749 16.97037 10327 ft 267 kts 338°
2026-04-26 22:42 47.90489 16.96198 10152 ft 257 kts 338°
2026-04-26 22:42 47.92187 16.95378 10007 ft 256 kts 338°
2026-04-26 22:42 47.93902 16.94545 9673 ft 261 kts 337°
2026-04-26 22:42 47.95432 16.93258 9429 ft 249 kts 313°
2026-04-26 22:43 47.96375 16.91164 9282 ft 244 kts 292°
2026-04-26 22:43 47.96823 16.88721 9142 ft 246 kts 279°
2026-04-26 22:43 47.96715 16.86182 8977 ft 247 kts 261°
2026-04-26 22:43 47.96267 16.83688 8847 ft 250 kts 257°
2026-04-26 22:44 47.95517 16.81343 8672 ft 257 kts 234°
2026-04-26 22:44 47.94097 16.79708 8540 ft 269 kts 209°
2026-04-26 22:44 47.92246 16.79046 8387 ft 280 kts 184°
2026-04-26 22:44 47.90315 16.79583 8232 ft 284 kts 167°
2026-04-26 22:45 47.88405 16.80419 8060 ft 288 kts 167°
2026-04-26 22:45 47.86474 16.81252 7887 ft 288 kts 167°
2026-04-26 22:45 47.84560 16.82069 7703 ft 284 kts 167°
2026-04-26 22:45 47.82668 16.82859 7531 ft 279 kts 168°
2026-04-26 22:46 47.80810 16.83626 7367 ft 275 kts 168°
2026-04-26 22:46 47.79014 16.84366 7203 ft 267 kts 168°
2026-04-26 22:46 47.77231 16.85099 7052 ft 264 kts 168°
2026-04-26 22:46 47.75468 16.85821 6892 ft 263 kts 168°
2026-04-26 22:47 47.73701 16.86447 6731 ft 256 kts 180°
2026-04-26 22:47 47.72007 16.85990 6583 ft 245 kts 212°
2026-04-26 22:47 47.70706 16.84395 6469 ft 244 kts 234°
2026-04-26 22:47 47.69883 16.82218 6311 ft 243 kts 252°
2026-04-26 22:48 47.69444 16.79814 6147 ft 240 kts 267°
2026-04-26 22:48 47.69728 16.77417 6030 ft 238 kts 297°
2026-04-26 22:48 47.70724 16.75498 5855 ft 240 kts 319°
2026-04-26 22:48 47.72162 16.74246 5678 ft 242 kts 340°
2026-04-26 22:49 47.73791 16.73542 5512 ft 245 kts 345°
2026-04-26 22:49 47.75448 16.72902 5338 ft 246 kts 345°
2026-04-26 22:49 47.77097 16.72264 5141 ft 243 kts 346°
2026-04-26 22:49 47.78731 16.71685 4958 ft 239 kts 347°
2026-04-26 22:50 47.80335 16.71088 4777 ft 237 kts 345°
2026-04-26 22:50 47.81928 16.70448 4607 ft 236 kts 345°
2026-04-26 22:50 47.83509 16.69794 4434 ft 236 kts 345°
2026-04-26 22:50 47.85091 16.69133 4269 ft 236 kts 345°
2026-04-26 22:51 47.86674 16.68469 4125 ft 234 kts 345°
2026-04-26 22:51 47.88214 16.67823 3923 ft 226 kts 345°
2026-04-26 22:51 47.89694 16.67202 3750 ft 216 kts 345°
2026-04-26 22:51 47.91104 16.66610 3574 ft 204 kts 345°
2026-04-26 22:52 47.92436 16.66051 3449 ft 199 kts 345°
2026-04-26 22:52 47.93771 16.65491 3314 ft 199 kts 345°
2026-04-26 22:52 47.95082 16.64940 3216 ft 196 kts 345°
2026-04-26 22:52 47.96358 16.64402 3095 ft 185 kts 346°
2026-04-26 22:53 47.97543 16.63904 2962 ft 173 kts 346°
2026-04-26 22:53 47.98684 16.63424 2708 ft 164 kts 346°
2026-04-26 22:53 47.99731 16.62982 2479 ft 150 kts 346°
2026-04-26 22:53 48.00732 16.62562 2330 ft 151 kts 347°
2026-04-26 22:54 48.01733 16.62141 2109 ft 151 kts 346°
2026-04-26 22:54 48.02737 16.61717 1890 ft 149 kts 346°
2026-04-26 22:54 48.03728 16.61299 1688 ft 147 kts 346°
2026-04-26 22:54 48.04718 16.60876 1461 ft 149 kts 345°
2026-04-26 22:55 48.05713 16.60460 1292 ft 148 kts 346°
2026-04-26 22:55 48.06703 16.60056 1108 ft 148 kts 342°
2026-04-26 22:55 48.07704 16.59611 891 ft 151 kts 343°
2026-04-26 22:55 48.08706 16.59210 673 ft 147 kts 341°
2026-04-26 22:56 48.09659 16.58792 621 ft 133 kts 344°
2026-04-26 22:56 48.10411 16.58477 627 ft 90 kts 343°
2026-04-26 22:56 48.10851 16.58293 626 ft 28 kts 344°
2026-04-26 22:56 48.11022 16.58117 622 ft 30 kts 303°
2026-04-26 22:57 48.11117 16.57838 626 ft 30 kts 295°
2026-04-26 22:57 48.11208 16.57557 621 ft 30 kts 296°
2026-04-26 22:57 48.11300 16.57277 626 ft 30 kts 296°
2026-04-26 22:57 48.11391 16.56998 625 ft 30 kts 296°
2026-04-26 22:58 48.11482 16.56718 625 ft 30 kts 296°
2026-04-26 22:58 48.11566 16.56459 624 ft 26 kts 296°